Location: Praha
(50.0830°N, 14.4670°E)
Time: 15:06:43
(UTC+01:00)

ISS - Pass Details

Date: 04 December 2018
Orbit: 401 x 408 km, 51.6° (Epoch: 12 December)

Event Time Altitude Azimuth Distance (km) Brightness Sun altitude
Rises 17:51:10 0° 276° (W) 2,318 1.3 -16.7°
Reaches altitude 10° 17:53:16 10° 280° (W) 1,457 0.0 -17.0°
Maximum altitude 17:56:31 64° 2° (N) 450 -3.8 -17.6°
Enters shadow 17:56:58 55° 48° (NE) 489 -3.8 -17.6°
